Total_Precipitation_Accumulation
1.88 2.06 2.24 2.34 2.33 2.16 2.19 2.28 2.19 1.88 1.64 1.45 1.35 1.27 1.25 1.31 1.62 1.51 1.34 1.30 1.18 1.13 1.09 1.07 1.09 1.16 1.36 1.65 1.91 2.07 2.21 2.23 2.30 2.40 2.48 2.50 2.50 2.55
1.89 2.02 2.06 2.11 2.18 2.09 2.08 2.19 2.17 1.99 1.73 1.49 1.33 1.26 1.30 1.25 1.44 1.34 1.44 1.51 1.20 1.07 1.02 1.04 1.01 0.96 0.94 1.05 1.21 1.36 1.46 1.52 1.66 1.81 1.86 1.88 1.90 1.96
1.40 1.55 1.78 1.98 2.07 2.07 2.12 2.18 2.19 2.04 1.77 1.61 1.36 1.32 1.42 1.36 1.37 1.34 1.44 1.48 1.24 1.13 0.98 0.94 0.95 0.90 0.88 0.87 0.90 0.98 1.08 1.16 1.27 1.40 1.51 1.54 1.51 1.54
1.25 1.28 1.40 1.67 1.83 1.95 2.04 2.07 2.13 2.08 1.89 1.85 1.73 1.49 1.41 1.38 1.49 1.59 1.55 1.52 1.43 1.41 1.27 1.05 0.97 0.95 0.90 0.86 0.84 0.82 0.84 0.90 0.98 1.05 1.15 1.31 1.42 1.40
1.13 1.14 1.25 1.38 1.53 1.63 1.74 1.85 1.92 2.03 2.01 1.83 1.88 1.79 1.55 1.49 1.50 1.61 1.69 1.80 1.65 1.58 1.61 1.42 1.21 1.11 1.03 0.95 0.89 0.85 0.84 0.86 0.88 0.93 0.98 1.04 1.13 1.22
1.05 1.12 1.16 1.20 1.37 1.60 1.70 1.78 1.82 1.93 2.05 1.98 1.91 1.85 1.71 1.62 1.59 1.64 1.82 1.93 1.91 1.66 1.54 1.46 1.40 1.29 1.18 1.08 0.98 0.95 0.94 0.90 0.91 0.92 0.94 1.01 1.04 1.06
0.94 0.93 1.02 1.13 1.23 1.44 1.55 1.78 1.82 1.95 2.03 2.07 1.96 1.78 1.66 1.62 1.57 1.56 1.74 1.97 2.02 1.92 1.75 1.53 1.40 1.24 1.14 1.11 1.10 1.08 1.04 1.00 1.00 1.05 1.10 1.11 1.11 1.13
0.94 0.93 0.93 1.00 1.07 1.14 1.20 1.44 1.64 1.80 1.92 1.92 1.91 1.76 1.61 1.56 1.65 1.68 1.72 1.81 1.94 1.90 1.72 1.75 1.65 1.45 1.28 1.14 1.22 1.29 1.28 1.22 1.13 1.10 1.15 1.20 1.22 1.23
0.87 0.96 1.01 0.98 1.05 1.13 1.15 1.24 1.34 1.41 1.56 1.68 1.70 1.62 1.59 1.54 1.63 1.69 1.70 1.65 1.58 1.66 1.63 1.74 1.75 1.57 1.37 1.27 1.30 1.25 1.24 1.24 1.20 1.14 1.11 1.11 1.16 1.22
0.87 0.87 1.00 1.05 1.09 1.25 1.25 1.34 1.28 1.20 1.22 1.31 1.45 1.50 1.46 1.53 1.63 1.82 1.93 1.79 1.64 1.67 1.65 1.61 1.57 1.49 1.33 1.30 1.32 1.18 1.13 1.15 1.15 1.13 1.09 1.06 1.05 1.10
0.85 0.86 0.98 1.06 1.24 1.36 1.38 1.39 1.29 1.23 1.30 1.39 1.50 1.57 1.58 1.63 1.71 1.80 1.87 1.89 1.80 1.73 1.61 1.50 1.40 1.39 1.36 1.27 1.23 1.25 1.19 1.15 1.13 1.13 1.12 1.13 1.17 1.25
0.91 0.89 1.10 1.08 1.20 1.25 1.30 1.42 1.43 1.32 1.30 1.30 1.33 1.39 1.38 1.47 1.72 1.77 1.90 1.99 1.84 1.75 1.60 1.49 1.45 1.56 1.64 1.40 1.20 1.17 1.16 1.24 1.26 1.24 1.22 1.23 1.32 1.30
0.86 0.86 0.82 0.98 1.02 1.12 1.23 1.28 1.52 1.45 1.38 1.39 1.34 1.26 1.26 1.30 1.43 1.64 1.81 1.87 1.82 1.59 1.43 1.44 1.46 1.52 1.52 1.40 1.28 1.22 1.19 1.18 1.23 1.24 1.26 1.32 1.41 1.35
0.74 0.78 0.78 0.89 0.92 0.99 1.00 1.17 1.40 1.39 1.31 1.41 1.40 1.33 1.27 1.29 1.31 1.39 1.56 1.60 1.56 1.52 1.44 1.42 1.43 1.42 1.40 1.29 1.24 1.26 1.25 1.20 1.19 1.22 1.23 1.41 1.47 1.55
0.59 0.75 0.82 0.89 0.85 0.81 0.95 1.16 1.21 1.24 1.38 1.35 1.37 1.32 1.25 1.28 1.28 1.35 1.43 1.43 1.38 1.34 1.34 1.35 1.45 1.48 1.47 1.37 1.21 1.14 1.22 1.26 1.22 1.22 1.26 1.32 1.29 1.35
0.61 0.79 0.94 0.97 0.90 0.85 0.92 1.05 1.09 1.21 1.37 1.26 1.23 1.20 1.18 1.27 1.33 1.39 1.35 1.36 1.39 1.32 1.29 1.28 1.42 1.65 1.69 1.56 1.50 1.40 1.34 1.33 1.28 1.32 1.38 1.39 1.40 1.39
0.74 0.91 1.05 1.06 1.06 0.99 0.99 1.07 1.06 1.04 1.11 1.07 1.11 1.16 1.19 1.21 1.22 1.29 1.30 1.25 1.28 1.21 1.23 1.25 1.25 1.34 1.49 1.56 1.58 1.52 1.55 1.56 1.54 1.57 1.58 1.47 1.36 1.35
0.96 1.10 1.21 1.28 1.29 1.25 1.21 1.16 1.06 1.02 0.97 1.00 1.12 1.15 1.13 1.17 1.20 1.23 1.30 1.29 1.27 1.18 1.15 1.14 1.17 1.29 1.38 1.37 1.26 1.21 1.28 1.35 1.39 1.50 1.60 1.55 1.36 1.23
1.21 1.24 1.28 1.33 1.34 1.28 1.20 1.10 0.98 0.90 0.91 0.98 1.01 1.04 1.07 1.11 1.17 1.19 1.22 1.25 1.20 1.11 1.08 1.07 1.14 1.25 1.37 1.29 1.10 1.00 1.08 1.18 1.27 1.37 1.44 1.39 1.22 1.13
1.29 1.32 1.40 1.39 1.33 1.20 1.07 0.98 0.86 0.83 0.87 0.89 0.90 0.87 0.94 1.03 1.08 1.12 1.16 1.20 1.18 1.14 1.11 1.10 1.16 1.26 1.35 1.32 1.15 1.00 1.03 1.11 1.16 1.24 1.27 1.31 1.28 1.30
0.99 1.03 1.09 1.12 1.08 0.99 0.93 0.90 0.84 0.82 0.82 0.83 0.84 0.85 0.92 0.97 0.96 0.99 1.07 1.21 1.25 1.21 1.19 1.12 1.14 1.28 1.27 1.29 1.21 1.01 0.94 1.07 1.15 1.15 1.17 1.30 1.34 1.32
0.77 0.79 0.80 0.78 0.79 0.80 0.82 0.86 0.87 0.86 0.87 0.87 0.89 0.90 0.94 1.00 0.97 0.97 1.01 1.09 1.15 1.15 1.12 1.10 1.15 1.27 1.32 1.34 1.22 1.06 0.97 0.96 1.11 1.27 1.26 1.24 1.22 1.19
0.76 0.78 0.77 0.75 0.73 0.75 0.80 0.85 0.89 0.88 0.87 0.89 0.94 0.96 0.97 1.00 1.00 1.02 1.04 1.09 1.14 1.16 1.16 1.17 1.21 1.30 1.32 1.27 1.20 1.10 1.04 1.00 1.02 1.11 1.19 1.31 1.20 1.02